SCP
0 0 0 -0 0 -0 0 0 0 0 -0 0 0 0 -0 0 0 0 -0 0 -1 -0 -0 -1 -1 -1 -2 -2 -2 -2 -1 -0
0 0 0 0 0 0 0 0 0 0 0 0 0 0 0 0 0 0 0 0 -0 -1 -0 -0 -0 -1 -2 -3 -2 -2 -1 -0
0 0 0 0 0 0 0 0 0 0 0 -0 0 0 0 0 0 0 0 0 0 -1 -0 -0 -0 -1 -2 -2 -2 -2 -1 -1
-0 -0 0 0 0 0 0 -0 0 0 0 -0 0 -0 0 0 0 0 0 0 0 0 -0 -0 -0 -1 -1 -2 -1 -1 -1 -1
-0 0 0 0 0 -0 0 0 0 0 0 0 0 0 0 0 0 0 0 0 0 0 0 -1 -1 -0 -0 -1 -1 -1 -1 -1
0 -0 0 0 0 -0 -0 0 0 0 0 0 0 0 0 0 1 1 1 0 0 0 1 0 -1 -0 -0 -1 -1 -1 -1 -1
0 0 0 -0 -0 0 -0 -0 0 0 0 0 0 0 0 0 0 1 1 1 0 0 0 2 2 1 1 -1 -1 -1 0 -0
-0 0 0 -0 -0 0 0 0 -0 0 0 0 0 0 0 0 0 1 1 1 1 1 1 1 2 4 3 3 2 1 1 1
-0 0 0 -0 0 -0 -0 -0 0 0 -0 -0 0 0 0 0 1 1 1 1 0 0 0 1 1 3 4 5 5 2 2 2
-0 -0 0 -0 0 0 0 -0 0 0 0 0 0 0 1 3 4 3 1 1 1 0 0 0 1 2 3 3 5 3 3 3
0 0 0 -0 -0 0 0 0 0 0 0 0 0 0 1 1 3 2 1 1 1 0 -0 1 2 3 3 2 4 4 4 2
0 0 -0 -0 0 0 0 0 0 1 -0 -0 0 0 -0 0 0 1 0 1 1 1 0 0 3 4 4 3 3 3 5 4
0 0 0 0 0 0 0 0 0 1 1 0 0 0 1 0 1 1 0 1 2 3 2 1 3 4 6 5 4 4 4 2
0 0 0 0 0 0 0 0 1 1 1 1 1 0 1 1 1 1 1 1 2 2 4 6 5 5 6 7 8 5 2 2
0 0 0 0 0 0 0 0 0 0 1 0 0 0 0 1 1 1 -0 1 1 1 1 3 7 8 7 8 5 2 2 2
0 0 0 0 0 0 0 0 0 0 0 0 0 0 0 0 0 1 0 0 1 1 1 1 1 3 3 3 3 2 2 2
0 0 0 0 0 0 0 0 0 0 0 0 0 0 0 0 0 1 2 -2 -0 1 1 1 1 1 1 2 2 2 3 2
0 0 0 0 0 0 0 0 0 0 0 0 0 0 0 0 0 0 1 2 -2 -3 1 0 0 1 1 1 2 2 2 1
0 0 0 0 0 0 0 0 0 0 0 0 0 0 0 0 0 0 1 1 2 -1 -0 0 -0 1 1 1 2 2 1 1
Wind_Speed_500mb
14 21 22 27 31 39 43 38 28 32 43 18 29 40 96 6 41 35 46 58 75 66 66 72 71 75 68 69 67 62 64 59
28 10 20 31 33 30 23 35 34 31 37 29 23 28 22 17 19 37 20 27 72 72 68 70 75 73 74 72 71 61 57 57
26 28 21 25 27 28 32 27 25 22 24 31 24 8 16 12 35 23 20 15 39 73 72 71 75 73 78 75 75 65 58 54
35 29 22 32 32 33 22 33 29 29 31 36 14 7 7 18 17 21 20 10 25 61 70 72 77 74 76 73 76 71 65 60
22 12 37 23 29 38 37 33 29 25 25 25 17 13 21 17 10 29 20 10 13 33 69 74 80 77 81 76 74 66 67 68
27 42 27 20 33 36 38 20 27 28 30 29 31 28 24 20 23 18 12 8 17 21 52 75 76 78 80 80 77 69 68 67
33 35 36 39 34 41 40 36 32 37 37 32 32 32 17 22 20 18 15 13 23 27 32 64 72 73 76 71 73 68 71 72
30 35 37 36 35 38 42 46 46 40 41 33 34 36 13 11 14 22 23 23 30 33 41 50 64 62 67 71 69 70 74 77
30 34 34 30 33 33 37 35 43 35 41 30 11 13 10 10 7 11 19 23 25 39 31 40 53 62 58 68 65 74 76 79
25 29 34 33 28 30 37 39 28 32 27 51 46 19 19 33 25 17 17 22 26 32 41 41 53 54 63 67 66 76 79 85
24 27 35 40 29 25 25 22 30 31 38 55 76 99 43 42 45 25 29 30 29 24 29 35 53 60 68 66 66 76 82 88
23 30 35 35 38 30 15 24 27 34 26 16 53 15 17 51 39 35 33 32 40 33 22 24 24 53 73 74 73 75 79 85
23 28 29 24 31 33 15 9 20 23 28 25 6 15 26 28 22 18 28 33 23 26 33 17 29 42 67 72 80 81 80 79
25 30 35 26 22 20 15 18 23 19 14 15 21 33 28 25 26 17 23 32 21 26 26 14 16 30 55 63 70 80 83 71
27 27 34 32 36 37 47 34 20 24 7 11 19 20 24 33 37 26 22 25 27 23 23 11 6 16 35 51 67 71 70 65
27 31 39 50 46 41 43 43 36 29 13 20 29 31 34 27 39 37 17 16 20 22 20 24 25 23 36 45 51 53 60 68
34 34 47 51 45 34 26 33 33 35 21 23 28 34 33 38 37 39 28 14 16 26 23 23 23 26 34 42 45 49 67 75
28 42 46 44 49 47 45 39 41 41 42 35 35 42 34 43 39 36 44 24 16 21 32 31 27 26 30 34 40 58 74 74
41 48 55 55 52 48 48 48 48 53 53 49 48 48 41 45 46 37 36 44 24 28 47 44 28 28 32 35 56 70 77 69
Wind_Direction_500mb
252 217 216 253 259 279 286 285 274 282 292 206 94 72 296 306 165 166 177 176 182 190 190 189 189 193 194 205 215 218 216 217
308 278 244 272 289 288 269 262 271 286 292 299 145 188 236 194 120 133 147 173 180 185 194 190 188 193 196 208 216 215 209 212
273 251 270 251 225 244 269 280 290 286 258 248 42 78 347 66 67 101 133 176 190 185 190 191 185 191 196 208 214 214 207 209
299 308 271 233 259 271 248 239 261 278 289 301 4 314 110 289 63 85 22 170 201 187 187 189 189 191 190 204 211 216 208 209
296 29 348 354 347 332 283 294 287 282 273 288 341 29 14 356 19 107 97 323 234 208 187 191 192 195 195 199 207 208 197 204
285 307 319 317 304 305 315 289 288 281 294 314 330 355 16 68 75 59 60 357 276 265 199 194 195 195 194 195 205 202 198 199
295 309 308 301 293 287 288 294 296 299 305 305 314 328 48 35 19 22 6 343 301 235 249 196 195 195 193 193 196 200 200 199
292 283 271 270 269 272 282 285 284 280 281 284 285 291 57 2 18 17 351 338 314 295 229 193 192 193 197 194 197 198 202 199
287 294 297 287 281 275 282 258 263 275 279 328 256 286 343 320 54 31 338 328 313 294 265 220 197 198 205 194 197 199 204 198
273 280 274 277 288 308 303 296 287 295 340 23 355 315 56 58 43 4 334 322 307 296 273 240 206 201 200 196 198 200 201 197
268 268 276 271 268 282 342 326 330 340 44 23 13 357 45 42 21 14 344 329 315 289 279 284 207 201 199 197 200 200 194 200
248 265 277 297 309 329 347 295 15 38 72 88 51 349 335 18 331 354 341 331 341 322 288 254 200 199 196 194 194 202 198 202
274 265 263 267 286 312 276 343 2 32 39 115 165 293 336 21 9 349 347 333 339 350 326 252 196 203 194 189 195 204 207 207
271 261 267 14 334 311 356 337 351 359 38 351 321 317 355 357 353 19 1 351 337 339 358 48 185 215 190 190 196 203 208 205
279 285 302 315 325 331 335 331 302 311 320 306 312 311 326 317 327 346 359 358 351 336 314 274 145 156 182 192 204 208 211 208
295 286 288 296 304 311 308 312 314 295 328 321 315 312 309 318 311 319 334 352 349 339 319 292 270 229 216 217 217 216 212 202
294 294 296 290 285 293 318 324 318 336 292 294 307 305 308 310 313 300 311 325 329 338 315 293 278 253 240 233 232 219 202 202
280 297 298 298 299 301 299 296 297 299 301 295 288 292 293 299 300 304 291 300 300 329 308 307 285 261 238 232 229 213 197 198
294 303 300 301 297 281 283 286 286 289 288 290 285 285 285 286 288 288 302 274 291 320 289 286 297 261 235 225 217 210 202 204
Wind_Speed_850mb
14 21 22 27 31 39 43 38 28 32 43 18 29 40 96 6 41 35 46 58 75 66 66 72 71 75 68 69 67 62 64 59
28 10 20 31 33 30 23 35 34 31 37 29 23 28 22 17 19 37 20 27 72 72 68 70 75 73 74 72 71 61 57 57
26 28 21 25 27 28 32 27 25 22 24 31 24 8 16 12 35 23 20 15 39 73 72 71 75 73 78 75 75 65 58 54
35 29 22 32 32 33 22 33 29 29 31 36 14 7 7 18 17 21 20 10 25 61 70 72 77 74 76 73 76 71 65 60
22 12 37 23 29 38 37 33 29 25 25 25 17 13 21 17 10 29 20 10 13 33 69 74 80 77 81 76 74 66 67 68
27 42 27 20 33 36 38 20 27 28 30 29 31 28 24 20 23 18 12 8 17 21 52 75 76 78 80 80 77 69 68 67
33 35 36 39 34 41 40 36 32 37 37 32 32 32 17 22 20 18 15 13 23 27 32 64 72 73 76 71 73 68 71 72
30 35 37 36 35 38 42 46 46 40 41 33 34 36 13 11 14 22 23 23 30 33 41 50 64 62 67 71 69 70 74 77
30 34 34 30 33 33 37 35 43 35 41 30 11 13 10 10 7 11 19 23 25 39 31 40 53 62 58 68 65 74 76 79
25 29 34 33 28 30 37 39 28 32 27 51 46 19 19 33 25 17 17 22 26 32 41 41 53 54 63 67 66 76 79 85
24 27 35 40 29 25 25 22 30 31 38 55 76 99 43 42 45 25 29 30 29 24 29 35 53 60 68 66 66 76 82 88
23 30 35 35 38 30 15 24 27 34 26 16 53 15 17 51 39 35 33 32 40 33 22 24 24 53 73 74 73 75 79 85
23 28 29 24 31 33 15 9 20 23 28 25 6 15 26 28 22 18 28 33 23 26 33 17 29 42 67 72 80 81 80 79
25 30 35 26 22 20 15 18 23 19 14 15 21 33 28 25 26 17 23 32 21 26 26 14 16 30 55 63 70 80 83 71
27 27 34 32 36 37 47 34 20 24 7 11 19 20 24 33 37 26 22 25 27 23 23 11 6 16 35 51 67 71 70 65
27 31 39 50 46 41 43 43 36 29 13 20 29 31 34 27 39 37 17 16 20 22 20 24 25 23 36 45 51 53 60 68
34 34 47 51 45 34 26 33 33 35 21 23 28 34 33 38 37 39 28 14 16 26 23 23 23 26 34 42 45 49 67 75
28 42 46 44 49 47 45 39 41 41 42 35 35 42 34 43 39 36 44 24 16 21 32 31 27 26 30 34 40 58 74 74
41 48 55 55 52 48 48 48 48 53 53 49 48 48 41 45 46 37 36 44 24 28 47 44 28 28 32 35 56 70 77 69
Wind_Direction_850mb
252 217 216 253 259 279 286 285 274 282 292 206 94 72 296 306 165 166 177 176 182 190 190 189 189 193 194 205 215 218 216 217
308 278 244 272 289 288 269 262 271 286 292 299 145 188 236 194 120 133 147 173 180 185 194 190 188 193 196 208 216 215 209 212
273 251 270 251 225 244 269 280 290 286 258 248 42 78 347 66 67 101 133 176 190 185 190 191 185 191 196 208 214 214 207 209
299 308 271 233 259 271 248 239 261 278 289 301 4 314 110 289 63 85 22 170 201 187 187 189 189 191 190 204 211 216 208 209
296 29 348 354 347 332 283 294 287 282 273 288 341 29 14 356 19 107 97 323 234 208 187 191 192 195 195 199 207 208 197 204
285 307 319 317 304 305 315 289 288 281 294 314 330 355 16 68 75 59 60 357 276 265 199 194 195 195 194 195 205 202 198 199
295 309 308 301 293 287 288 294 296 299 305 305 314 328 48 35 19 22 6 343 301 235 249 196 195 195 193 193 196 200 200 199
292 283 271 270 269 272 282 285 284 280 281 284 285 291 57 2 18 17 351 338 314 295 229 193 192 193 197 194 197 198 202 199
287 294 297 287 281 275 282 258 263 275 279 328 256 286 343 320 54 31 338 328 313 294 265 220 197 198 205 194 197 199 204 198
273 280 274 277 288 308 303 296 287 295 340 23 355 315 56 58 43 4 334 322 307 296 273 240 206 201 200 196 198 200 201 197
268 268 276 271 268 282 342 326 330 340 44 23 13 357 45 42 21 14 344 329 315 289 279 284 207 201 199 197 200 200 194 200
248 265 277 297 309 329 347 295 15 38 72 88 51 349 335 18 331 354 341 331 341 322 288 254 200 199 196 194 194 202 198 202
274 265 263 267 286 312 276 343 2 32 39 115 165 293 336 21 9 349 347 333 339 350 326 252 196 203 194 189 195 204 207 207
271 261 267 14 334 311 356 337 351 359 38 351 321 317 355 357 353 19 1 351 337 339 358 48 185 215 190 190 196 203 208 205
279 285 302 315 325 331 335 331 302 311 320 306 312 311 326 317 327 346 359 358 351 336 314 274 145 156 182 192 204 208 211 208
295 286 288 296 304 311 308 312 314 295 328 321 315 312 309 318 311 319 334 352 349 339 319 292 270 229 216 217 217 216 212 202
294 294 296 290 285 293 318 324 318 336 292 294 307 305 308 310 313 300 311 325 329 338 315 293 278 253 240 233 232 219 202 202
280 297 298 298 299 301 299 296 297 299 301 295 288 292 293 299 300 304 291 300 300 329 308 307 285 261 238 232 229 213 197 198
294 303 300 301 297 281 283 286 286 289 288 290 285 285 285 286 288 288 302 274 291 320 289 286 297 261 235 225 217 210 202 204